Weather in Nagano

Japan     36°35′55″N   138°11′23″E
temp.,
°C
wind,
m/s
gust,
m/s
humid.,
%
clouds,
%
prec.,
mm/h
press.,
hPa
HPBL,
m
13 june, sun
sun1300:00+15se1187100 0.0 101619
03:00+15sse1187100 0.0 101515
06:00+16sse0184100 0.0 101592
09:00+22wnw2160100 0.0 1013881
12:00+20nnw2171100 0.4 1011350
15:00+21nnw1174100 1.1 1010338
18:00+18nne119279 2.0 101030
21:00+16ne1196100 3.6 101133
14 june, mon
mon1400:00+16ssw0097100 1.4 101018
03:00+15sse1197100 2.3 100912
06:00+16nnw019774 0.4 101086
09:00+19sw128880 1.4 1009492
12:00+21ne127985 3.6 1007681
15:00+21sse127799 6.6 1006662
18:00+19ene119018 4.1 100622
21:00+15ese229617 6.6 100927
15 june, tue
tue1500:00+14se119610 0.3 100815
03:00+13se119699 0.7 100815
06:00+15sse019310 0.0 100877
09:00+22w116538 0.0 1007977
12:00+23ese1266100 1.1 10061185
15:00+22ene1269100 2.9 10061103
18:00+18ese2187100 2.5 100721
21:00+16se2396100 4.6 100972
16 june, wed
wed1600:00+15se1198100 4.9 100931
03:00+15ese1197100 10.3 100932
06:00+15se1198100 3.3 101044
09:00+15se1298100 7.9 1009139
12:00+16sse1295100 2.4 1009163
15:00+16se2396100 4.6 1009178
18:00+14se2397100 0.6 1010137
21:00+14se2497100 0.8 1010164
17 june, thu
thu1700:00+14se239764 0.1 1010111
03:00+13se239654 0.1 100988
06:00+14sse239429 0.0 1010168
09:00+20s1265100 0.0 10081031
12:00+23sse2357100 0.1 10061475
15:00+22se346729 1.1 1005971
18:00+18ese238996 1.4 100696
21:00+16se238890 1.5 1007100